WWW216 CYEG-CYMM

Flight info

Callsign WWW216
Flight time 0h 40m
Altitude 27000
Route GABET1 GABET EBLAR KAVDA LEXON LEXON5
Aircraft B736/M-VGDW/C

Departure

Time 2026-04-29 00:40
Airport Edmonton International Airport (CYEG)

Arrival

Time 2026-04-29 01:21
Airport Fort McMurray International Airport (CYMM)
Time Latitude Longitude Altitude Speed Heading
2026-04-29 00:13 53.30952 -113.58901 2374 ft 0 kts 87°
2026-04-29 00:36 53.30953 -113.58874 2383 ft 5 kts 87°
2026-04-29 00:36 53.30942 -113.58806 2386 ft 7 kts 146°
2026-04-29 00:37 53.30886 -113.58794 2383 ft 9 kts 182°
2026-04-29 00:37 53.30855 -113.58865 2383 ft 8 kts 265°
2026-04-29 00:37 53.30850 -113.58962 2383 ft 9 kts 265°
2026-04-29 00:37 53.30843 -113.59101 2386 ft 13 kts 265°
2026-04-29 00:38 53.30836 -113.59243 2383 ft 12 kts 266°
2026-04-29 00:38 53.30830 -113.59355 2383 ft 6 kts 265°
2026-04-29 00:38 53.30833 -113.59418 2385 ft 5 kts 290°
2026-04-29 00:38 53.30857 -113.59464 2383 ft 5 kts 313°
2026-04-29 00:39 53.30882 -113.59508 2387 ft 5 kts 313°
2026-04-29 00:39 53.30925 -113.59549 2384 ft 10 kts 355°
2026-04-29 00:39 53.31034 -113.59449 2383 ft 45 kts 35°
2026-04-29 00:39 53.31531 -113.58870 2387 ft 126 kts 34°
2026-04-29 00:40 53.32423 -113.57845 2584 ft 173 kts 33°
2026-04-29 00:40 53.33363 -113.56748 3881 ft 157 kts 33°
2026-04-29 00:40 53.34273 -113.55681 4745 ft 170 kts 33°
2026-04-29 00:40 53.35332 -113.54446 5123 ft 204 kts 33°
2026-04-29 00:41 53.36593 -113.52969 5501 ft 233 kts 34°
2026-04-29 00:41 53.37505 -113.51896 5925 ft 244 kts 34°
2026-04-29 00:41 53.39499 -113.49742 6023 ft 263 kts 26°
2026-04-29 00:41 53.41180 -113.48449 6805 ft 266 kts 22°
2026-04-29 00:42 53.42886 -113.47230 8027 ft 266 kts 21°
2026-04-29 00:42 53.44592 -113.46019 9231 ft 266 kts 20°
2026-04-29 00:42 53.46283 -113.44808 10333 ft 269 kts 20°
2026-04-29 00:42 53.48064 -113.43526 10873 ft 292 kts 20°
2026-04-29 00:43 53.50030 -113.42103 11111 ft 322 kts 21°
2026-04-29 00:43 53.52174 -113.40537 11333 ft 349 kts 21°
2026-04-29 00:43 53.54458 -113.38851 11869 ft 363 kts 21°
2026-04-29 00:43 53.56793 -113.37114 12691 ft 368 kts 22°
2026-04-29 00:44 53.59147 -113.35355 13594 ft 372 kts 22°
2026-04-29 00:44 53.61525 -113.33573 14372 ft 376 kts 22°
2026-04-29 00:44 53.63904 -113.31788 15067 ft 381 kts 22°
2026-04-29 00:44 53.66343 -113.29956 15749 ft 386 kts 22°
2026-04-29 00:45 53.68813 -113.28098 16404 ft 391 kts 22°
2026-04-29 00:45 53.71289 -113.26235 17085 ft 396 kts 22°
2026-04-29 00:45 53.73846 -113.24307 17760 ft 400 kts 22°
2026-04-29 00:45 53.76411 -113.22371 18420 ft 405 kts 22°
2026-04-29 00:46 53.78999 -113.20416 18989 ft 409 kts 22°
2026-04-29 00:46 53.81608 -113.18441 19612 ft 412 kts 22°
2026-04-29 00:46 53.84239 -113.16447 20236 ft 415 kts 22°
2026-04-29 00:46 53.86865 -113.14454 20666 ft 422 kts 22°
2026-04-29 00:47 53.89576 -113.12396 20992 ft 430 kts 22°
2026-04-29 00:47 53.92326 -113.10304 21449 ft 435 kts 22°
2026-04-29 00:47 53.95095 -113.08193 22080 ft 435 kts 22°
2026-04-29 00:47 53.97833 -113.06101 22885 ft 431 kts 22°
2026-04-29 00:48 54.00558 -113.04016 23753 ft 427 kts 22°
2026-04-29 00:48 54.03226 -113.01972 24439 ft 425 kts 22°
2026-04-29 00:48 54.05921 -112.99906 25068 ft 424 kts 22°
2026-04-29 00:48 54.08610 -112.97842 25705 ft 424 kts 22°
2026-04-29 00:49 54.11297 -112.95777 26403 ft 422 kts 22°
2026-04-29 00:49 54.13978 -112.93713 27031 ft 422 kts 22°
2026-04-29 00:49 54.16663 -112.91645 27169 ft 423 kts 22°
2026-04-29 00:49 54.19338 -112.89581 27184 ft 421 kts 22°
2026-04-29 00:50 54.21981 -112.87538 27197 ft 421 kts 22°
2026-04-29 00:50 54.24652 -112.85470 27192 ft 421 kts 22°
2026-04-29 00:50 54.27325 -112.83398 27197 ft 421 kts 22°
2026-04-29 00:50 54.29995 -112.81326 27190 ft 421 kts 22°
2026-04-29 00:51 54.31753 -112.79959 27192 ft 422 kts 22°
2026-04-29 00:51 54.34428 -112.77877 27192 ft 422 kts 22°
2026-04-29 00:51 54.37107 -112.75790 27186 ft 422 kts 22°
2026-04-29 00:51 54.39779 -112.73705 27179 ft 422 kts 22°
2026-04-29 00:52 54.42448 -112.71588 27188 ft 422 kts 23°
2026-04-29 00:52 54.45108 -112.69449 27181 ft 422 kts 23°
2026-04-29 00:52 54.47766 -112.67305 27181 ft 422 kts 23°
2026-04-29 00:52 54.50394 -112.65180 27179 ft 422 kts 23°
2026-04-29 00:53 54.53083 -112.63002 27183 ft 422 kts 23°
2026-04-29 00:53 54.55705 -112.60874 27181 ft 422 kts 23°
2026-04-29 00:53 54.58390 -112.58693 27194 ft 431 kts 23°
2026-04-29 00:53 54.61163 -112.56438 27193 ft 440 kts 23°
2026-04-29 00:54 54.63921 -112.54193 27193 ft 448 kts 23°
2026-04-29 00:54 54.66770 -112.51869 27190 ft 454 kts 23°
2026-04-29 00:54 54.69646 -112.49518 27184 ft 460 kts 24°
2026-04-29 00:54 54.72559 -112.47132 27184 ft 464 kts 24°
2026-04-29 00:55 54.75492 -112.44725 27182 ft 466 kts 24°
2026-04-29 00:55 54.78425 -112.42315 27175 ft 468 kts 24°
2026-04-29 00:55 54.81376 -112.39886 27176 ft 469 kts 24°
2026-04-29 00:55 54.84294 -112.37480 27180 ft 470 kts 24°
2026-04-29 00:56 54.87255 -112.35035 27175 ft 469 kts 24°
2026-04-29 00:56 54.90193 -112.32604 27165 ft 465 kts 24°
2026-04-29 00:56 54.93101 -112.30195 27163 ft 462 kts 24°
2026-04-29 00:56 54.96004 -112.27786 27174 ft 461 kts 24°
2026-04-29 00:57 54.98901 -112.25381 27175 ft 462 kts 24°
2026-04-29 00:57 55.01804 -112.22966 27172 ft 462 kts 24°
2026-04-29 00:57 55.04670 -112.20578 27169 ft 462 kts 24°
2026-04-29 00:57 55.07577 -112.18152 27166 ft 462 kts 24°
2026-04-29 00:58 55.10479 -112.15725 27169 ft 461 kts 24°
2026-04-29 00:58 55.13348 -112.13320 27158 ft 454 kts 24°
2026-04-29 00:58 55.16183 -112.10940 27117 ft 450 kts 24°
2026-04-29 00:58 55.19025 -112.08553 26553 ft 452 kts 24°
2026-04-29 00:59 55.21826 -112.06198 26088 ft 451 kts 24°
2026-04-29 00:59 55.24646 -112.03822 25636 ft 449 kts 24°
2026-04-29 00:59 55.27451 -112.01454 25197 ft 446 kts 24°
2026-04-29 00:59 55.30226 -111.99107 24754 ft 443 kts 24°
2026-04-29 01:00 55.32989 -111.96767 24331 ft 441 kts 24°
2026-04-29 01:00 55.35712 -111.94458 23916 ft 439 kts 24°
2026-04-29 01:00 55.38463 -111.92122 23445 ft 437 kts 24°
2026-04-29 01:00 55.41196 -111.89797 22939 ft 435 kts 24°
2026-04-29 01:01 55.43915 -111.87480 22449 ft 432 kts 24°
2026-04-29 01:01 55.46626 -111.85167 21963 ft 430 kts 24°
2026-04-29 01:01 55.49305 -111.82877 21489 ft 427 kts 24°
2026-04-29 01:01 55.51940 -111.80622 21035 ft 423 kts 24°
2026-04-29 01:02 55.54601 -111.78341 20606 ft 427 kts 24°
2026-04-29 01:02 55.57289 -111.76035 20178 ft 430 kts 24°
2026-04-29 01:02 55.59974 -111.73726 19748 ft 426 kts 24°
2026-04-29 01:02 55.62634 -111.71435 19342 ft 423 kts 24°
2026-04-29 01:03 55.65233 -111.69193 18963 ft 420 kts 24°
2026-04-29 01:03 55.67853 -111.66929 18579 ft 418 kts 24°
2026-04-29 01:03 55.70465 -111.64670 18170 ft 417 kts 24°
2026-04-29 01:03 55.73069 -111.62414 17728 ft 415 kts 24°
2026-04-29 01:04 55.75657 -111.60168 17294 ft 413 kts 24°
2026-04-29 01:04 55.78231 -111.57932 16871 ft 410 kts 24°
2026-04-29 01:04 55.80777 -111.55717 16440 ft 406 kts 24°
2026-04-29 01:04 55.83301 -111.53516 16039 ft 403 kts 24°
2026-04-29 01:05 55.85811 -111.51325 15626 ft 400 kts 24°
2026-04-29 01:05 55.88288 -111.49160 15231 ft 397 kts 24°
2026-04-29 01:05 55.90754 -111.47002 14832 ft 394 kts 24°
2026-04-29 01:05 55.93163 -111.44891 14445 ft 391 kts 24°
2026-04-29 01:06 55.95602 -111.42751 13953 ft 388 kts 24°
2026-04-29 01:06 55.98000 -111.40642 13402 ft 378 kts 24°
2026-04-29 01:06 56.00323 -111.38595 12852 ft 367 kts 24°
2026-04-29 01:06 56.02588 -111.36597 12336 ft 358 kts 24°
2026-04-29 01:07 56.04794 -111.34649 11813 ft 350 kts 24°
2026-04-29 01:07 56.06957 -111.32738 11410 ft 341 kts 24°
2026-04-29 01:07 56.09045 -111.30890 11023 ft 327 kts 24°
2026-04-29 01:07 56.11029 -111.29132 10692 ft 308 kts 24°
2026-04-29 01:08 56.12882 -111.27488 10388 ft 292 kts 24°
2026-04-29 01:08 56.14663 -111.25905 10078 ft 279 kts 24°
2026-04-29 01:08 56.16385 -111.24375 9763 ft 275 kts 24°
2026-04-29 01:08 56.18089 -111.22864 9486 ft 272 kts 24°
2026-04-29 01:09 56.19784 -111.21358 9216 ft 271 kts 24°
2026-04-29 01:09 56.21473 -111.19854 8955 ft 271 kts 24°
2026-04-29 01:09 56.23160 -111.18350 8692 ft 270 kts 24°
2026-04-29 01:09 56.24820 -111.16869 8436 ft 270 kts 24°
2026-04-29 01:10 56.26502 -111.15367 8182 ft 269 kts 24°
2026-04-29 01:10 56.28182 -111.13864 7916 ft 269 kts 24°
2026-04-29 01:10 56.29865 -111.12357 7660 ft 269 kts 24°
2026-04-29 01:10 56.31546 -111.10851 7403 ft 269 kts 24°
2026-04-29 01:11 56.33203 -111.09363 7149 ft 269 kts 24°
2026-04-29 01:11 56.34882 -111.07854 6900 ft 269 kts 24°
2026-04-29 01:11 56.36560 -111.06346 6644 ft 269 kts 24°
2026-04-29 01:11 56.38240 -111.04834 6385 ft 269 kts 24°
2026-04-29 01:12 56.39914 -111.03326 6114 ft 269 kts 24°
2026-04-29 01:12 56.41584 -111.01820 5849 ft 267 kts 24°
2026-04-29 01:12 56.43233 -111.00331 5580 ft 262 kts 24°
2026-04-29 01:12 56.44835 -110.98883 5318 ft 259 kts 25°
2026-04-29 01:13 56.46434 -110.97436 5054 ft 255 kts 25°
2026-04-29 01:13 56.48014 -110.96005 4785 ft 252 kts 25°
2026-04-29 01:13 56.49573 -110.94592 4521 ft 249 kts 25°
2026-04-29 01:13 56.51115 -110.93195 4261 ft 246 kts 25°
2026-04-29 01:14 56.52636 -110.91814 4069 ft 241 kts 25°
2026-04-29 01:14 56.54083 -110.90498 4043 ft 224 kts 25°
2026-04-29 01:14 56.55439 -110.89264 4024 ft 215 kts 25°
2026-04-29 01:14 56.56781 -110.88094 4022 ft 214 kts 18°
2026-04-29 01:15 56.58240 -110.87820 4020 ft 207 kts 358°
2026-04-29 01:15 56.59630 -110.87835 4001 ft 193 kts 359°
2026-04-29 01:15 56.60912 -110.87831 3994 ft 184 kts 359°
2026-04-29 01:15 56.62176 -110.87822 3999 ft 182 kts 359°
2026-04-29 01:16 56.63432 -110.87982 3995 ft 182 kts 340°
2026-04-29 01:16 56.64310 -110.89522 4020 ft 181 kts 293°
2026-04-29 01:16 56.64695 -110.91710 4012 ft 184 kts 291°
2026-04-29 01:16 56.65069 -110.93965 3932 ft 189 kts 281°
2026-04-29 01:17 56.65239 -110.96338 3790 ft 189 kts 278°
2026-04-29 01:17 56.65332 -110.98703 3658 ft 187 kts 273°
2026-04-29 01:17 56.65344 -111.01030 3400 ft 178 kts 271°
2026-04-29 01:17 56.65339 -111.03193 3174 ft 163 kts 271°
2026-04-29 01:18 56.65334 -111.05126 2955 ft 146 kts 271°
2026-04-29 01:18 56.65329 -111.08637 2578 ft 139 kts 272°
2026-04-29 01:18 56.65327 -111.10397 2395 ft 140 kts 272°
2026-04-29 01:19 56.65326 -111.12163 2192 ft 139 kts 272°
2026-04-29 01:19 56.65328 -111.13919 1967 ft 139 kts 271°
2026-04-29 01:19 56.65332 -111.15662 1783 ft 137 kts 269°
2026-04-29 01:19 56.65325 -111.17411 1612 ft 138 kts 269°
2026-04-29 01:20 56.65320 -111.19164 1422 ft 138 kts 269°
2026-04-29 01:20 56.65322 -111.20872 1234 ft 134 kts 268°
2026-04-29 01:20 56.65320 -111.22406 1214 ft 107 kts 270°
2026-04-29 01:20 56.65320 -111.23471 1213 ft 72 kts 270°
2026-04-29 01:21 56.65320 -111.23983 1213 ft 23 kts 270°
2026-04-29 01:21 56.65335 -111.24158 1213 ft 10 kts 313°
2026-04-29 01:21 56.65402 -111.24180 1213 ft 9 kts
2026-04-29 01:21 56.65436 -111.24102 1213 ft 8 kts 68°
2026-04-29 01:22 56.65458 -111.24006 1213 ft 8 kts 67°
2026-04-29 01:22 56.65479 -111.23914 1213 ft 8 kts 67°
2026-04-29 01:22 56.65488 -111.23818 1213 ft 8 kts 90°
2026-04-29 01:22 56.65488 -111.23723 1213 ft 7 kts 89°
2026-04-29 01:23 56.65483 -111.23633 1213 ft 7 kts 98°
2026-04-29 01:23 56.65481 -111.23544 1214 ft 7 kts 91°
2026-04-29 01:23 56.65481 -111.23457 1214 ft 7 kts 89°
2026-04-29 01:23 56.65482 -111.23366 1214 ft 8 kts 90°
2026-04-29 01:24 56.65483 -111.23265 1214 ft 8 kts 85°
2026-04-29 01:24 56.65488 -111.23156 1214 ft 9 kts 88°
2026-04-29 01:24 56.65488 -111.23040 1214 ft 10 kts 90°
2026-04-29 01:24 56.65488 -111.22917 1214 ft 10 kts 90°
2026-04-29 01:25 56.65488 -111.22787 1214 ft 10 kts 90°
2026-04-29 01:25 56.65488 -111.22652 1214 ft 11 kts 90°
2026-04-29 01:25 56.65488 -111.22541 1214 ft 7 kts 90°
2026-04-29 01:25 56.65488 -111.22476 1214 ft 3 kts 91°
2026-04-29 01:26 56.65495 -111.22445 1214 ft 3 kts 59°
2026-04-29 01:26 56.65514 -111.22388 1214 ft 5 kts 59°
2026-04-29 01:26 56.65542 -111.22360 1214 ft 5 kts 359°
2026-04-29 01:26 56.65567 -111.22359 1214 ft 1 kts
2026-04-29 01:27 56.65571 -111.22359 1214 ft 0 kts